Free Severe Weather Alerts by Email and Text Message   

 
Follow iAlert.com on twitter @ialertcom
Search For Active Alerts in Your Area  
  Hi Guest:  [ Sign-up / Services ] [ Login ]

Current weather by "City, St" or "zip code"  

 

Advertise Here

Hazardous Weather Conditions

No active alerts for HOUSTON, TEXAS

Current Conditions: HOUSTON, TEXAS

A Few Clouds


78.0 F

Last Updated on Aug 19 2017, 5:53 am CDT
Humidity: 93%
Wind Speed: N 0.0 mph
Barometer 30.00 in
Dewpoint: 75.9 F
Visibility: 10.00 mi
Precip: --
Heat Index: NA
Wind Chill: NA
Current conditions at:

Houston, Hooks Memorial Airport, TX (KDWH)

Lat: 30.06 Lon: -95.556

Local Radar Image active severe weather and emergency alerts image image weather storm and storm spotter reports image weather observation monitoring service image
Local
Radar
Active
Alerts
Storm Reports Weather
Monitoring

Weather Alert Notification Services


ialert severe weather and emergency alerts by text message and email ialert daily weather forecast by email and text message service ialert real-time weather-observation monitoring and alert notification service ialert storm report monitoring alert notification

Observation History for HOUSTON, TEXAS


Time Wind
(mph)
Vis
(mi)
Weather Precip (in) Temperature (F) Relative
Humidity
Wind
Chill
(°F)
Heat
Index
(°F)
Pressure
Air Dwpt altimeter
(in)
sea level
(mb)
5:53 am CDT N 0.0 10.00 A Few Clouds -- 78.0 75.9 93% NA NA 30.00 1015.6
4:53 am CDT SW 3.5 10.00 Fair -- 79.0 77.0 94% NA NA 29.99 1015.3
3:53 am CDT SW 4.6 10.00 Fair -- 80.0 77.0 90% NA 86 30.00 1015.4
2:53 am CDT SW 3.5 10.00 Fair -- 81.0 77.0 88% NA 88 30.00 1015.5
1:53 am CDT SW 3.5 10.00 Fair -- 81.0 77.0 88% NA 88 30.01 1015.9
12:53 am CDT S 5.8 10.00 Fair -- 83.0 75.9 79% NA 91 30.02 1016.2
11:53 pm CDT S 6.9 10.00 Fair -- 83.0 75.9 79% NA 91 30.01 1015.9
10:53 pm CDT S 5.8 10.00 Fair -- 85.0 75.0 72% NA 94 29.99 1015.4
9:53 pm CDT 5.8 10.00 Fair -- 87.0 75.0 67% NA 96 29.98 1014.9
8:53 pm CDT 5.8 10.00 Fair -- 87.0 73.9 65% NA 95 29.96 1014.1
7:53 pm CDT SE 5.8 10.00 Fair -- 90.0 75.0 62% NA 101 29.96 1014.2
6:53 pm CDT SE 9.2 10.00 Fair -- 93.0 75.0 56% NA 104 29.94 1013.8
5:53 pm CDT N 0.0 10.00 Fair -- 96.0 73.0 48% NA 106 29.95 1013.8
4:53 pm CDT 4.6 10.00 A Few Clouds -- 96.0 75.0 51% NA 108 29.96 1014.2
3:53 pm CDT 3.5 10.00 Mostly Cloudy -- 97.0 73.0 46% NA 107 29.98 1014.8
2:53 pm CDT N 0.0 10.00 Mostly Cloudy -- 96.0 73.0 48% NA 106 29.99 1015.3
1:53 pm CDT SW 6.9 10.00 Partly Cloudy -- 92.0 75.0 58% NA 103 30.02 1016.2
12:53 pm CDT 5.8 10.00 Mostly Cloudy -- 91.0 75.9 61% NA 103 30.03 1016.8
11:53 am CDT SW 6.9 10.00 Mostly Cloudy -- 89.0 75.0 63% NA 99 30.05 1017.4
10:53 am CDT W 8.1 10.00 Partly Cloudy -- 89.0 77.0 68% NA 102 30.06 1017.8
9:53 am CDT SW 6.9 10.00 Mostly Cloudy -- 85.0 77.0 77% NA 96 30.07 1017.8
8:53 am CDT 3.5 10.00 A Few Clouds -- 85.0 79.0 82% NA 98 30.06 1017.5
7:53 am CDT N 0.0 10.00 Partly Cloudy -- 80.0 77.0 90% NA 86 30.04 1017.0
6:53 am CDT N 0.0 10.00 Fair -- 78.0 75.9 93% NA NA 30.02 1016.2

Regional Weather Observation:


John Dunn Helistop, TX (KMCJ)

Fair
82.0 F

Houston, Houston Hobby Airport, TX (KHOU)

A Few Clouds
81.0 F

Houston Southwest Airport, TX (KAXH)

Fog/Mist
75.0 F

Conroe, Montgomery County Airport, TX (KCXO)

Partly Cloudy
74.0 F

Houston, Pearland Regional Airport, TX (KLVJ)

Fair
80.0 F

Cleveland, TX (K6R3)

Fair
74.0 F

Advertise Here


Advertise Here